User: anonymous   Login
Location: Kergonan
(48.2337°N, 4.5518°W)
Time: 21:37:06
(UTC+00:00)
Language:

CZ-2C R/B - Orbit

View from above orbital plane
View from above orbital plane
View from above satellite
View from above satellite

Ground track
Ground track

The orbit data is extracted from the following two-line orbital elements,

1 31114U 07010B   20158.58937022 +.00000031 +00000-0 +33568-4 0  9993
2 31114 098.2625 012.1959 0058686 299.5171 060.0162 14.19321802681469
Epoch (UTC): 06 June 2020 14:08:41
Eccentricity: 0.0058686
inclination: 98.2625°
perigee height: 785 km
apogee height: 870 km
right ascension of ascending node: 12.1959°
argument of perigee: 299.5171°
revolutions per day: 14.19321802
mean anomaly at epoch: 60.0162°
orbit number at epoch: 68146

The dashed part of the orbit path shows where the satellite is in the earth's shadow,  

DLR